Terminal Aerodrome Forecast
Issued by NWS

Home | Current Version | Previous Version | Text Only | Print | Product List | Glossary On
Versions: 1 2 3 4 5 6 7 8 9 10 11 12 13 14 15 16 17 18 19 20 21 22 23 24 25 26 27 28 29 30 31 32 33 34 35 36 37 38 39 40 41 42 43 44 45 46 47 48 49 50
728
FTUS44 KBMX 142336
TAFASN
TAF
KASN 142336Z 1500/1524 12008KT P6SM BKN070 BKN250
     FM151200 11008KT P6SM BKN012 BKN025
     FM151600 16011G18KT P6SM BKN009 OVC015
     FM152000 16013G23KT 5SM -RA OVC012=

USA.gov is the U.S. government's official web portal to all federal, state and local government web resources and services.